Showing default

CONNECTA IOT-2, 60522

Orbit data source: Space-Track

CONNECTA IOT-2, 60522 is a payload satellite owned by Plan-S (TR) in SSO that was launched on Fri, 16 Aug 2024 UTC via an FALCON 9 launch vehicle from the Air Force Western Test Range (AFWTR). Payload-class satellites include a variety of spacecraft equipped with specific instruments for various scientific and technological missions. These include communications satellites like Starlink; space stations such as the ISS; scientific satellites like the Hubble; Earth observation satellites from companies like Planet Labs, Umbra, and HawkEye 360; GPS; miniature CubeSats for education and research; and military/defense satellites.

Loading next visibility...
Identifier
60522, 2024-149BG
Orbit
SSO
Country
Flag of TRTR / TURK
Related business
Manufacturer
Plan-S
Mission
Operational Commercial Communications
Bus & Motor
CUBESAT 6U, Unknown motor
Mass
10 kg wet, 10 kg dry
Launch date (UTC)
2024-08-16 (2 years ago)
Launch vehicle
FALCON 9
Launch site
Air Force Western Test Range (AFWTR)
Object type
Payload
Rocket body
Debris
Shape & HBR
Box, 2.2 m
Radar Cross Section
0.080 m², Medium (>0.1 m² and < 1m²)

Expand to show TLE details & history
Last TLE update: 16 hours ago

TLE from 16 hours ago
0 CONNECTA IOT-2
1 60522U 24149BG  26171.20041377  .00003505  00000-0  14764-3 0  9994
2 60522  97.3835 249.3006 0005274 325.1773  34.9119 15.23996059102359
Epoch: 2026-06-20T04:48Z
TLE epoch observation values (Epoch: 2026-06-20T04:48:35.749Z)
Latitude
Longitude
-91.2668°
Altitude
493.926 km
Speed
7.619 km/s
True Right ascension
16h 37m 12s
True Declination
0° 00' 00"
Sunlit
Object was in full shadow at epoch
Visualization orbit readout
Latitude
Unknown
Longitude
Unknown
Altitude
Unknown
Speed
Unknown
Apparent Right ascension
Unknown
Apparent Declination
Unknown
Sunlit
N/A
Visualization observer readout
Local Sidereal Time
07:22:45
Azimuth
Unknown
Elevation
Unknown
Doppler factor
Unknown
Orbital elements
Apogee altitude
494.384 km
Perigee altitude
487.139 km
Semi-major axis
6,868.898 km
Eccentricity
0.00053
Inclination
97.3835°
RAAN
249.3006°
Arg. of periapsis
325.1773°
True anomaly
34.94651°
Mean anomaly
34.9119°
Eccentric anomaly
34.9292°
Mean motion
3.81252 °/min
Orbital period
94.43 mins
BSTAR
0.00014764
Loading maneuver chart data...
Computing Atmospheric mass density...
Loading historical data...
Loading historical data...
Loading historical data...
Loading historical data...
Loading historical data...
Loading historical data...
Loading historical data...

Documentation

Showing up to 5 results
|